CFG2369 VTSP-EDDF

Flight info

Callsign CFG2369
Flight time N/A
Altitude 34000
Route UBNEN L645 MAPSO P628 KAGUL P628 NIKOT P628 RK G202 ZB L750 RANAH A846 RUBAD B475 DOLOS B449 MAMED P130 ARBAT P130 REBLO UM11 ARLAT DCT CRM UL746 ODERO DCT OPT DCT IRLOX DCT EMPOS DCT NEPOT DCT DEGET DCT VAJDI DCT DITIS DCT RAPET T170 GAPLA T178 KERAX
Aircraft A339/H-SDE1E2E3GHIJ1J4J7LM1OP2RVWXYZ/LB1D1

Departure

Time 2026-05-08 19:41
Airport Phuket International Airport (VTSP)

Arrival

Time N/A
Airport Frankfurt Main Airport (EDDF)
Time Latitude Longitude Altitude Speed Heading
2026-05-08 19:21 8.10585 98.30458 33 ft 0 kts 105°
2026-05-08 19:34 8.10588 98.30449 33 ft 4 kts 101°
2026-05-08 19:35 8.10591 98.30423 31 ft 4 kts 79°
2026-05-08 19:35 8.10584 98.30398 32 ft 4 kts 61°
2026-05-08 19:35 8.10576 98.30383 32 ft 0 kts 61°
2026-05-08 19:38 8.10586 98.30387 32 ft 3 kts 28°
2026-05-08 19:38 8.10637 98.30392 32 ft 12 kts
2026-05-08 19:39 8.10730 98.30379 32 ft 15 kts 342°
2026-05-08 19:39 8.10843 98.30365 32 ft 17 kts 11°
2026-05-08 19:39 8.10960 98.30393 32 ft 17 kts 17°
2026-05-08 19:39 8.11048 98.30362 32 ft 13 kts 314°
2026-05-08 19:40 8.11132 98.30344 31 ft 12 kts 351°
2026-05-08 19:40 8.11196 98.30367 31 ft 7 kts 65°
2026-05-08 19:40 8.11204 98.30434 33 ft 15 kts 84°
2026-05-08 19:40 8.11236 98.30763 34 ft 84 kts 84°
2026-05-08 19:41 8.11308 98.31582 46 ft 147 kts 84°
2026-05-08 19:41 8.11433 98.32746 294 ft 175 kts 83°
2026-05-08 19:41 8.11548 98.33967 888 ft 184 kts 86°
2026-05-08 19:41 8.11652 98.35300 1397 ft 196 kts 85°
2026-05-08 19:42 8.11781 98.36680 2027 ft 199 kts 84°
2026-05-08 19:42 8.11919 98.38135 2280 ft 218 kts 85°
2026-05-08 19:42 8.12077 98.39721 2492 ft 238 kts 84°
2026-05-08 19:42 8.12248 98.41445 2726 ft 254 kts 84°
2026-05-08 19:43 8.12424 98.43230 3240 ft 256 kts 85°
2026-05-08 19:43 8.12589 98.45028 3697 ft 260 kts 85°
2026-05-08 19:43 8.12760 98.46847 4222 ft 260 kts 85°
2026-05-08 19:43 8.12926 98.48680 4715 ft 264 kts 85°
2026-05-08 19:44 8.13095 98.50535 5212 ft 266 kts 85°
2026-05-08 19:44 8.13265 98.52402 5693 ft 269 kts 85°
2026-05-08 19:44 8.13445 98.54281 6218 ft 270 kts 85°
2026-05-08 19:44 8.13625 98.56182 6670 ft 272 kts 85°
2026-05-08 19:45 8.13590 98.58089 7062 ft 275 kts 103°
2026-05-08 19:45 8.12772 98.59825 7508 ft 278 kts 128°
2026-05-08 19:45 8.11286 98.61070 7927 ft 283 kts 152°
2026-05-08 19:45 8.09382 98.61585 8346 ft 288 kts 175°
2026-05-08 19:46 8.07366 98.61609 8771 ft 292 kts 179°
2026-05-08 19:46 8.05330 98.61579 9221 ft 294 kts 179°
2026-05-08 19:46 8.01206 98.61619 10030 ft 302 kts 177°
2026-05-08 19:47 7.99055 98.61681 10138 ft 316 kts 176°
2026-05-08 19:47 7.96822 98.61737 10413 ft 324 kts 181°
2026-05-08 19:47 7.94623 98.61208 10824 ft 329 kts 204°
2026-05-08 19:47 7.92750 98.59870 11241 ft 335 kts 226°
2026-05-08 19:48 7.91481 98.57901 11655 ft 339 kts 248°
2026-05-08 19:48 7.90979 98.55583 12027 ft 343 kts 266°
2026-05-08 19:48 7.90936 98.53136 12149 ft 355 kts 271°
2026-05-08 19:48 7.90967 98.50604 12289 ft 366 kts 270°
2026-05-08 19:49 7.90921 98.48026 12651 ft 369 kts 268°
2026-05-08 19:49 7.90791 98.45436 13054 ft 371 kts 266°
2026-05-08 19:49 7.90609 98.42834 13442 ft 374 kts 266°
2026-05-08 19:49 7.90399 98.40214 13824 ft 376 kts 265°
2026-05-08 19:50 7.90185 98.37583 14169 ft 377 kts 265°
2026-05-08 19:50 7.89974 98.34940 14533 ft 379 kts 265°
2026-05-08 19:50 7.89762 98.32286 14901 ft 380 kts 265°
2026-05-08 19:50 7.89549 98.29622 15198 ft 383 kts 265°
2026-05-08 19:51 7.89334 98.26946 15541 ft 385 kts 265°
2026-05-08 19:51 7.89121 98.24246 15884 ft 386 kts 265°
2026-05-08 19:51 7.88907 98.21580 16205 ft 388 kts 265°
2026-05-08 19:51 7.88688 98.18838 16615 ft 388 kts 265°
2026-05-08 19:52 7.88471 98.16105 16853 ft 392 kts 265°
2026-05-08 19:52 7.88258 98.13360 17151 ft 394 kts 266°
2026-05-08 19:52 7.88327 98.10633 17510 ft 395 kts 277°
2026-05-08 19:52 7.88848 98.07913 17820 ft 397 kts 286°
2026-05-08 19:53 7.89789 98.05296 18186 ft 397 kts 295°
2026-05-08 19:53 7.91094 98.02846 18497 ft 398 kts 303°
2026-05-08 19:53 7.92738 98.00603 18784 ft 399 kts 310°
2026-05-08 19:53 7.94508 97.98438 19041 ft 401 kts 310°
2026-05-08 19:54 7.96269 97.96251 19312 ft 403 kts 309°
2026-05-08 19:54 7.98030 97.94044 19632 ft 404 kts 309°
2026-05-08 19:54 7.99790 97.91826 19908 ft 406 kts 309°
2026-05-08 19:54 8.01560 97.89594 20180 ft 408 kts 309°
2026-05-08 19:55 8.03341 97.87357 20464 ft 410 kts 309°
2026-05-08 19:55 8.05130 97.85112 20748 ft 412 kts 309°
2026-05-08 19:55 8.06319 97.83618 20933 ft 413 kts 309°
2026-05-08 19:55 8.08247 97.80262 21230 ft 418 kts 290°
2026-05-08 19:56 8.08770 97.78386 21385 ft 421 kts 280°
2026-05-08 19:56 8.08963 97.75450 21726 ft 420 kts 268°
2026-05-08 19:56 8.08770 97.72492 21913 ft 424 kts 265°
2026-05-08 19:56 8.08504 97.69524 22254 ft 425 kts 265°
2026-05-08 19:57 8.08265 97.66553 22535 ft 427 kts 266°
2026-05-08 19:57 8.08066 97.63553 22804 ft 429 kts 266°
2026-05-08 19:57 8.07893 97.60541 23060 ft 432 kts 266°
2026-05-08 19:57 8.07737 97.57512 23430 ft 432 kts 267°
2026-05-08 19:58 8.07585 97.54483 23717 ft 433 kts 267°
2026-05-08 19:58 8.07430 97.51444 23926 ft 435 kts 266°
2026-05-08 19:58 8.07260 97.48390 24173 ft 437 kts 266°
2026-05-08 19:58 8.07089 97.45325 24427 ft 438 kts 267°
2026-05-08 19:59 8.06927 97.42250 24660 ft 440 kts 266°
2026-05-08 19:59 8.06766 97.39163 24906 ft 442 kts 267°
2026-05-08 19:59 8.06610 97.36064 25122 ft 443 kts 267°
2026-05-08 19:59 8.06453 97.32949 25348 ft 445 kts 266°
2026-05-08 20:00 8.06282 97.29825 25582 ft 447 kts 266°
2026-05-08 20:00 8.06115 97.26752 25810 ft 448 kts 266°
2026-05-08 20:00 8.06157 97.23546 25992 ft 451 kts 277°
2026-05-08 20:00 8.06854 97.20463 26222 ft 452 kts 290°
2026-05-08 20:01 8.08170 97.17592 26428 ft 452 kts 302°
2026-05-08 20:01 8.09833 97.14893 26641 ft 454 kts 302°
2026-05-08 20:01 8.11488 97.12172 26865 ft 455 kts 302°
2026-05-08 20:01 8.13139 97.09444 27045 ft 457 kts 302°
2026-05-08 20:02 8.14793 97.06699 27272 ft 459 kts 302°
2026-05-08 20:02 8.16427 97.03977 27465 ft 460 kts 302°
2026-05-08 20:02 8.18117 97.01177 27653 ft 461 kts 302°
2026-05-08 20:02 8.19763 96.98440 27841 ft 463 kts 302°
2026-05-08 20:03 8.21432 96.95654 28065 ft 465 kts 302°
2026-05-08 20:03 8.23105 96.92859 28263 ft 466 kts 302°
2026-05-08 20:03 8.24790 96.90054 28483 ft 468 kts 302°
2026-05-08 20:03 8.26478 96.87240 28687 ft 470 kts 302°
2026-05-08 20:04 8.28175 96.84411 28880 ft 471 kts 302°
2026-05-08 20:04 8.29873 96.81585 29182 ft 470 kts 301°
2026-05-08 20:04 8.31570 96.78756 29400 ft 472 kts 301°
2026-05-08 20:04 8.33272 96.75919 29629 ft 473 kts 301°
2026-05-08 20:05 8.34980 96.73070 29784 ft 476 kts 301°
2026-05-08 20:05 8.36697 96.70211 29996 ft 476 kts 301°
2026-05-08 20:05 8.38415 96.67346 30178 ft 478 kts 301°
2026-05-08 20:05 8.40138 96.64471 30371 ft 479 kts 301°
2026-05-08 20:06 8.41864 96.61590 30550 ft 481 kts 302°
2026-05-08 20:06 8.43600 96.58702 30737 ft 482 kts 302°
2026-05-08 20:06 8.45325 96.55798 30890 ft 483 kts 301°
2026-05-08 20:06 8.47059 96.52884 31061 ft 485 kts 301°
2026-05-08 20:07 8.48807 96.49964 31256 ft 486 kts 302°
2026-05-08 20:07 8.50561 96.47042 31436 ft 487 kts 302°
2026-05-08 20:07 8.52325 96.44104 31615 ft 490 kts 302°
2026-05-08 20:07 8.54090 96.41161 31753 ft 491 kts 302°
2026-05-08 20:08 8.57650 96.35220 31832 ft 499 kts 302°
2026-05-08 20:08 8.61259 96.29185 31834 ft 505 kts 302°
2026-05-08 20:09 8.64892 96.23106 31828 ft 505 kts 302°
2026-05-08 20:09 8.68496 96.17076 31826 ft 503 kts 302°
2026-05-08 20:10 8.72139 96.10977 31835 ft 504 kts 301°
2026-05-08 20:10 8.75736 96.04950 31851 ft 504 kts 302°
2026-05-08 20:11 8.79364 95.98876 31851 ft 504 kts 302°
2026-05-08 20:11 8.82980 95.92795 31846 ft 504 kts 301°
2026-05-08 20:12 8.86603 95.86721 31842 ft 505 kts 301°
2026-05-08 20:12 8.90216 95.80636 31831 ft 505 kts 301°
2026-05-08 20:13 8.93831 95.74555 31827 ft 504 kts 301°
2026-05-08 20:13 8.97434 95.68480 31841 ft 500 kts 302°
2026-05-08 20:14 9.01015 95.62470 31845 ft 500 kts 301°
2026-05-08 20:14 9.04597 95.56444 31844 ft 499 kts 301°
2026-05-08 20:15 9.08164 95.50433 31825 ft 497 kts 301°
2026-05-08 20:15 9.11714 95.44402 31820 ft 499 kts 302°
2026-05-08 20:16 9.15309 95.38383 31839 ft 500 kts 301°
2026-05-08 20:16 9.18900 95.32350 31843 ft 500 kts 301°
2026-05-08 20:17 9.22456 95.26354 31842 ft 501 kts 301°
2026-05-08 20:17 9.26031 95.20307 31822 ft 500 kts 301°
2026-05-08 20:18 9.29597 95.14284 31822 ft 499 kts 301°
2026-05-08 20:18 9.33175 95.08250 31843 ft 499 kts 301°
2026-05-08 20:19 9.36753 95.02202 31845 ft 502 kts 301°
2026-05-08 20:19 9.40336 94.96138 31848 ft 500 kts 301°
2026-05-08 20:20 9.43911 94.90093 31840 ft 502 kts 301°
2026-05-08 20:20 9.47470 94.84062 31840 ft 499 kts 301°
2026-05-08 20:21 9.51040 94.78014 31844 ft 501 kts 301°
2026-05-08 20:21 9.54612 94.71970 31847 ft 500 kts 301°
2026-05-08 20:22 9.58140 94.65914 31839 ft 500 kts 301°
2026-05-08 20:22 9.61114 94.60882 31847 ft 502 kts 301°
2026-05-08 20:23 9.65313 94.53786 31841 ft 502 kts 301°
2026-05-08 20:23 9.68892 94.47720 31841 ft 501 kts 301°
2026-05-08 20:24 9.72828 94.41889 31839 ft 502 kts 310°
2026-05-08 20:24 9.77822 94.37027 31843 ft 501 kts 321°
2026-05-08 20:25 9.83162 94.32468 31844 ft 502 kts 320°
2026-05-08 20:25 9.88480 94.27881 31856 ft 502 kts 320°
2026-05-08 20:26 9.93792 94.23296 31850 ft 501 kts 320°
2026-05-08 20:26 9.99119 94.18709 31848 ft 502 kts 320°
2026-05-08 20:27 10.04447 94.14111 31840 ft 503 kts 320°
2026-05-08 20:27 10.09784 94.09515 31847 ft 503 kts 320°
2026-05-08 20:28 10.15124 94.04906 31844 ft 504 kts 320°
2026-05-08 20:28 10.20470 94.00295 31839 ft 504 kts 320°
2026-05-08 20:29 10.25816 93.95683 31823 ft 505 kts 320°
2026-05-08 20:29 10.31156 93.91066 31839 ft 504 kts 320°
2026-05-08 20:30 10.36497 93.86445 31824 ft 505 kts 320°
2026-05-08 20:30 10.41843 93.81825 31843 ft 505 kts 320°
2026-05-08 20:31 10.47187 93.77197 31838 ft 505 kts 320°
2026-05-08 20:31 10.52532 93.72569 31842 ft 505 kts 320°
2026-05-08 20:32 10.57884 93.67936 31834 ft 505 kts 319°
2026-05-08 20:32 10.63232 93.63295 31844 ft 505 kts 320°
2026-05-08 20:33 10.68581 93.58658 31839 ft 505 kts 320°
2026-05-08 20:33 10.73937 93.54023 31839 ft 505 kts 320°
2026-05-08 20:34 10.79287 93.49377 31824 ft 506 kts 319°
2026-05-08 20:35 10.87311 93.42406 31838 ft 506 kts 319°
2026-05-08 20:35 10.92657 93.37759 31838 ft 506 kts 319°
2026-05-08 20:36 10.98010 93.33107 31842 ft 506 kts 319°
2026-05-08 20:36 11.03327 93.28482 31840 ft 506 kts 319°
2026-05-08 20:37 11.08707 93.23788 31822 ft 506 kts 319°
2026-05-08 20:37 11.14021 93.19164 31821 ft 506 kts 319°
2026-05-08 20:38 11.19374 93.14513 31840 ft 506 kts 319°
2026-05-08 20:38 11.24719 93.09851 31841 ft 505 kts 319°
2026-05-08 20:39 11.30066 93.05187 31840 ft 507 kts 320°
2026-05-08 20:39 11.35400 93.00519 31817 ft 504 kts 319°
2026-05-08 20:40 11.40724 92.95864 31836 ft 504 kts 319°
2026-05-08 20:40 11.46059 92.91219 31838 ft 504 kts 319°
2026-05-08 20:41 11.51389 92.86566 31845 ft 504 kts 319°
2026-05-08 20:41 11.56715 92.81910 31837 ft 505 kts 319°
2026-05-08 20:42 11.62049 92.77251 31827 ft 505 kts 319°
2026-05-08 20:42 11.67144 92.72334 31848 ft 504 kts 312°
2026-05-08 20:43 11.71917 92.67086 31849 ft 504 kts 313°
2026-05-08 20:43 11.76710 92.61859 31846 ft 504 kts 313°
2026-05-08 20:44 11.81497 92.56627 31845 ft 504 kts 313°
2026-05-08 20:44 11.86245 92.51435 31845 ft 504 kts 313°
2026-05-08 20:45 11.91021 92.46207 31840 ft 504 kts 313°
2026-05-08 20:45 11.95798 92.40976 31847 ft 503 kts 313°
2026-05-08 20:46 12.00573 92.35746 31844 ft 503 kts 313°
2026-05-08 20:46 12.04536 92.31405 31838 ft 502 kts 313°
2026-05-08 20:47 12.09333 92.26143 31836 ft 503 kts 312°
2026-05-08 20:47 12.14070 92.20939 31818 ft 503 kts 312°
2026-05-08 20:48 12.18845 92.15703 31820 ft 504 kts 312°
2026-05-08 20:48 12.23650 92.10419 31818 ft 504 kts 312°
2026-05-08 20:49 12.28389 92.05211 31836 ft 504 kts 312°
2026-05-08 20:49 12.33155 91.99969 31838 ft 504 kts 312°
2026-05-08 20:50 12.37929 91.94709 31819 ft 503 kts 312°
2026-05-08 20:50 12.42688 91.89457 31818 ft 503 kts 312°
2026-05-08 20:51 12.47454 91.84214 31820 ft 503 kts 312°
2026-05-08 20:51 12.52214 91.78971 31841 ft 503 kts 312°
2026-05-08 20:52 12.56973 91.73722 31838 ft 503 kts 312°
2026-05-08 20:52 12.61725 91.68474 31823 ft 503 kts 312°
2026-05-08 20:53 12.66484 91.63229 31817 ft 503 kts 312°
2026-05-08 20:53 12.71237 91.57985 31824 ft 502 kts 312°
2026-05-08 20:54 12.75977 91.52731 31827 ft 502 kts 312°
2026-05-08 20:54 12.80724 91.47478 31838 ft 502 kts 312°
2026-05-08 20:55 12.85469 91.42219 31821 ft 503 kts 312°
2026-05-08 20:55 12.90219 91.36967 31818 ft 502 kts 312°
2026-05-08 20:56 12.94955 91.31716 31822 ft 501 kts 311°
2026-05-08 20:56 12.99688 91.26455 31823 ft 502 kts 311°
2026-05-08 20:57 13.04429 91.21194 31822 ft 502 kts 312°
2026-05-08 20:57 13.09172 91.15932 31827 ft 502 kts 311°
2026-05-08 20:58 13.13919 91.10668 31824 ft 502 kts 311°
2026-05-08 20:58 13.18618 91.05438 31841 ft 502 kts 311°
2026-05-08 20:59 13.23351 91.00173 31842 ft 501 kts 311°
2026-05-08 20:59 13.28076 90.94911 31829 ft 501 kts 312°
2026-05-08 21:00 13.32801 90.89649 31831 ft 501 kts 311°
2026-05-08 21:00 13.37521 90.84392 31824 ft 501 kts 311°
2026-05-08 21:01 13.42238 90.79120 31828 ft 501 kts 311°
2026-05-08 21:01 13.46961 90.73850 31822 ft 501 kts 312°
2026-05-08 21:02 13.51685 90.68586 31825 ft 501 kts 311°
2026-05-08 21:02 13.56396 90.63319 31826 ft 500 kts 311°
2026-05-08 21:03 13.61100 90.58047 31825 ft 500 kts 311°
2026-05-08 21:03 13.65813 90.52778 31834 ft 500 kts 311°
2026-05-08 21:04 13.70520 90.47510 31821 ft 500 kts 311°
2026-05-08 21:04 13.75226 90.42239 31825 ft 500 kts 311°
2026-05-08 21:05 13.79933 90.36963 31825 ft 500 kts 311°
2026-05-08 21:05 13.84635 90.31691 31835 ft 500 kts 311°
2026-05-08 21:06 13.89328 90.26427 31837 ft 499 kts 311°
2026-05-08 21:06 13.93983 90.21198 31827 ft 498 kts 311°
2026-05-08 21:07 13.98664 90.15936 31824 ft 498 kts 311°
2026-05-08 21:07 14.03339 90.10678 31823 ft 498 kts 311°
2026-05-08 21:08 14.08015 90.05422 31825 ft 497 kts 311°
2026-05-08 21:08 14.12685 90.00163 31826 ft 498 kts 311°
2026-05-08 21:09 14.17363 89.94899 31817 ft 498 kts 311°
2026-05-08 21:09 14.22039 89.89626 31825 ft 498 kts 311°
2026-05-08 21:10 14.26719 89.84345 31828 ft 499 kts 311°
2026-05-08 21:10 14.31401 89.79056 31826 ft 499 kts 311°
2026-05-08 21:11 14.36084 89.73764 31833 ft 499 kts 311°
2026-05-08 21:11 14.40765 89.68472 31826 ft 499 kts 311°
2026-05-08 21:12 14.45435 89.63184 31826 ft 499 kts 311°
2026-05-08 21:12 14.50116 89.57883 31829 ft 499 kts 311°
2026-05-08 21:13 14.54791 89.52587 31828 ft 499 kts 311°
2026-05-08 21:13 14.59468 89.47290 31832 ft 499 kts 311°
2026-05-08 21:14 14.64140 89.41998 31829 ft 498 kts 311°
2026-05-08 21:14 14.68806 89.36702 31832 ft 498 kts 311°
2026-05-08 21:15 14.73474 89.31402 31831 ft 498 kts 311°
2026-05-08 21:15 14.78227 89.26248 31831 ft 499 kts 313°
2026-05-08 21:16 14.83094 89.21127 31837 ft 499 kts 313°
2026-05-08 21:16 14.87935 89.15990 31845 ft 499 kts 313°
2026-05-08 21:17 14.92770 89.10842 31838 ft 499 kts 313°
2026-05-08 21:17 14.97592 89.05703 31845 ft 497 kts 312°
2026-05-08 21:18 15.02397 89.00560 31835 ft 497 kts 312°
2026-05-08 21:18 15.07206 88.95414 31841 ft 497 kts 312°
2026-05-08 21:19 15.12006 88.90277 31841 ft 497 kts 312°
2026-05-08 21:19 15.16805 88.85133 31834 ft 497 kts 312°
2026-05-08 21:20 15.21614 88.79988 31843 ft 497 kts 312°
2026-05-08 21:20 15.26413 88.74848 31835 ft 497 kts 312°
2026-05-08 21:21 15.31210 88.69704 31836 ft 496 kts 312°
2026-05-08 21:21 15.36006 88.64555 31835 ft 497 kts 312°
2026-05-08 21:22 15.40805 88.59398 31836 ft 497 kts 312°
2026-05-08 21:22 15.45603 88.54240 31838 ft 497 kts 312°
2026-05-08 21:23 15.50402 88.49081 31839 ft 497 kts 312°
2026-05-08 21:23 15.55201 88.43920 31835 ft 498 kts 312°
2026-05-08 21:24 15.59975 88.38779 31833 ft 498 kts 312°
2026-05-08 21:24 15.64782 88.33590 31845 ft 499 kts 312°
2026-05-08 21:25 15.69587 88.28407 31844 ft 498 kts 312°
2026-05-08 21:25 15.74392 88.23220 31845 ft 498 kts 312°
2026-05-08 21:26 15.79187 88.18034 31845 ft 498 kts 311°
2026-05-08 21:26 15.83988 88.12846 31842 ft 498 kts 312°
2026-05-08 21:27 15.88784 88.07661 31846 ft 498 kts 312°
2026-05-08 21:27 15.93587 88.02466 31850 ft 498 kts 311°
2026-05-08 21:28 15.98385 87.97265 31847 ft 498 kts 311°
2026-05-08 21:28 16.03178 87.92067 31857 ft 498 kts 311°
2026-05-08 21:29 16.07963 87.86869 31855 ft 497 kts 311°
2026-05-08 21:29 16.12742 87.81678 31850 ft 497 kts 311°
2026-05-08 21:30 16.17524 87.76485 31847 ft 497 kts 311°
2026-05-08 21:30 16.22301 87.71295 31853 ft 497 kts 311°
2026-05-08 21:31 16.27073 87.66101 31862 ft 496 kts 311°
2026-05-08 21:31 16.31825 87.60915 31856 ft 495 kts 311°
2026-05-08 21:32 16.36576 87.55740 31860 ft 494 kts 311°
2026-05-08 21:32 16.41283 87.50608 31860 ft 493 kts 311°
2026-05-08 21:33 16.46015 87.45444 31858 ft 493 kts 311°
2026-05-08 21:33 16.50750 87.40277 31854 ft 492 kts 311°
2026-05-08 21:34 16.55470 87.35116 31851 ft 492 kts 311°
2026-05-08 21:34 16.60193 87.29946 31850 ft 492 kts 311°
2026-05-08 21:35 16.64148 87.25618 31849 ft 492 kts 311°
2026-05-08 21:35 16.68871 87.20446 31853 ft 492 kts 311°
2026-05-08 21:36 16.73561 87.15297 31846 ft 494 kts 310°
2026-05-08 21:36 16.78340 87.10146 31848 ft 494 kts 311°
2026-05-08 21:37 16.83158 87.05026 31850 ft 494 kts 311°
2026-05-08 21:37 16.87963 86.99898 31853 ft 494 kts 311°
2026-05-08 21:38 16.92767 86.94754 31858 ft 495 kts 311°
2026-05-08 21:38 16.97571 86.89607 31859 ft 495 kts 311°
2026-05-08 21:39 17.02375 86.84455 31862 ft 495 kts 311°
2026-05-08 21:39 17.07179 86.79308 31869 ft 494 kts 311°
2026-05-08 21:40 17.11968 86.74160 31870 ft 494 kts 311°
2026-05-08 21:40 17.16750 86.69017 31865 ft 493 kts 311°
2026-05-08 21:41 17.23917 86.61310 31861 ft 492 kts 311°
2026-05-08 21:41 17.28690 86.56170 31857 ft 493 kts 311°